Dewpoint
54 55 55 54 54 55 55 55 55 56 56 56 56 56 57 57 56 57 57 58 57 58 58 59 59 59 60 60 60 60 59 47 44 40 32 33 47 61 62 65 66 65 56 33 32 28 28 29 28 31 34 35 35 33 36 37 36 31 24 21 14 17 18 23 23 24 23 21 21 21 19 19 19 19 20 21 20 20 20 19 19 19 20 23 21 37 41 46
54 54 55 55 54 55 55 55 55 56 56 56 56 56 56 56 57 57 57 58 57 58 58 59 59 59 60 60 60 60 56 48 40 36 34 48 67 67 65 66 65 61 49 31 30 30 28 28 30 31 30 28 35 34 36 33 35 28 26 13 14 23 23 28 26 25 21 20 22 22 22 19 19 20 21 20 19 19 19 20 20 19 19 19 19 21 25 46
54 54 54 54 54 55 55 55 55 55 56 55 55 56 56 56 56 57 57 57 57 57 58 58 59 59 60 60 59 59 51 36 25 24 33 61 68 68 65 66 63 58 34 32 33 28 26 28 29 29 31 26 29 31 34 32 32 32 24 20 25 26 24 28 26 24 23 23 23 23 22 19 19 22 22 20 18 20 20 20 20 19 19 19 20 21 23 32
54 54 54 53 54 54 55 55 55 55 55 56 55 56 56 56 56 56 57 57 57 58 58 58 59 59 59 60 60 56 39 26 22 23 31 62 68 67 67 65 61 48 35 33 31 29 30 30 30 30 30 26 27 33 30 32 26 30 25 23 25 28 23 22 29 27 26 25 24 23 23 24 25 22 20 19 20 20 20 21 20 19 19 20 21 23 25 30
54 54 54 53 54 55 54 55 55 56 55 55 55 56 56 56 57 56 57 57 57 58 58 58 59 59 59 60 59 49 29 17 22 30 34 65 67 67 67 63 55 37 35 31 29 28 29 29 28 30 29 25 26 25 31 34 29 31 26 28 28 29 25 25 28 29 27 26 23 22 24 25 24 22 21 20 20 19 19 22 22 21 20 21 22 23 32 33
56 56 55 54 55 55 55 54 55 56 56 55 56 56 56 57 57 57 57 57 57 57 58 58 58 59 59 59 48 37 25 10 22 31 61 65 66 67 65 60 54 35 33 31 30 29 27 25 27 27 25 22 23 18 18 32 32 24 26 28 30 28 26 28 27 26 24 26 25 25 25 22 21 20 21 21 20 20 22 22 22 23 23 23 32 34 35 35
57 57 56 56 55 55 55 54 55 56 56 55 56 56 57 57 57 57 57 58 58 57 58 58 58 59 59 56 43 32 27 24 32 36 63 67 66 65 63 60 50 36 33 32 30 29 28 25 25 27 23 21 20 20 21 24 30 27 24 27 27 30 29 29 29 29 28 27 24 25 22 20 20 18 21 20 21 21 21 21 22 28 34 35 35 35 35 36
57 57 57 56 56 55 55 55 54 55 56 56 56 57 57 57 57 57 57 58 57 58 58 57 58 58 58 43 37 35 35 33 34 44 60 60 55 55 50 41 39 38 32 31 29 28 27 25 24 26 21 19 18 22 24 21 27 30 28 29 28 23 27 27 26 23 23 22 23 22 21 19 20 19 19 19 19 20 21 20 26 33 35 35 35 35 35 35
57 58 56 56 56 55 55 55 55 55 56 56 56 57 57 57 57 57 57 57 58 57 57 57 57 58 55 41 36 30 28 40 40 53 57 49 45 43 40 37 36 33 33 32 31 30 28 26 26 22 17 21 22 21 23 21 19 27 25 25 23 21 21 21 21 21 21 21 21 20 19 19 20 21 19 19 20 21 20 26 28 35 35 35 35 35 35 35
58 59 58 58 58 56 54 55 54 55 55 56 56 57 57 57 58 57 57 58 57 57 57 57 57 57 46 39 36 28 33 42 57 58 54 48 42 41 42 39 35 34 31 34 29 27 27 26 26 27 24 25 22 22 24 21 19 26 26 24 21 21 21 22 21 21 21 22 21 19 18 18 19 20 17 19 20 21 23 30 34 35 34 34 34 35 35 35
58 59 58 59 58 57 55 54 54 54 55 56 56 57 57 57 58 58 58 58 57 57 57 56 58 51 42 37 33 30 39 49 56 57 52 45 40 37 40 41 37 35 34 35 30 28 28 28 32 29 30 21 23 23 23 23 23 22 22 22 21 21 20 20 20 19 20 18 20 19 19 20 19 21 18 19 19 21 26 31 34 34 34 34 34 34 35 34
59 58 58 58 58 57 56 55 54 54 55 56 56 57 57 57 58 58 58 57 57 57 56 56 57 50 39 35 33 31 44 46 55 52 49 44 43 43 44 43 38 39 34 32 35 39 34 31 31 24 22 26 22 24 23 24 23 23 21 20 20 20 19 19 18 20 22 18 20 20 18 19 20 18 20 19 19 24 29 32 34 34 33 33 33 34 34 34
59 58 58 58 58 57 56 56 54 54 55 56 56 57 57 58 58 58 58 57 56 56 56 57 55 51 35 30 32 38 40 44 53 48 45 46 45 44 44 43 41 37 35 33 34 39 39 33 29 25 29 24 24 24 25 25 24 22 21 19 19 20 19 19 21 21 20 19 20 20 18 20 20 19 20 20 19 24 31 32 33 33 33 33 33 33 33 34
59 59 59 59 58 57 56 56 54 55 55 56 56 57 57 58 58 58 58 56 56 56 58 58 51 47 29 27 31 38 44 52 51 49 45 46 40 42 43 39 37 35 40 36 36 40 38 34 31 29 29 26 25 31 24 23 24 22 22 20 19 20 20 20 21 20 20 21 20 20 20 19 20 20 20 23 21 24 31 33 32 32 32 32 33 33 33 33
59 59 59 59 58 58 57 56 55 55 56 56 57 57 58 58 58 57 57 56 55 57 58 55 47 36 33 32 35 39 54 50 51 51 49 41 40 40 40 35 34 33 34 33 35 38 37 35 31 28 27 28 26 25 23 22 23 25 20 22 24 19 20 22 23 23 20 20 19 19 20 18 19 19 22 28 25 29 32 32 31 31 32 32 32 32 32 33
59 59 59 59 58 57 57 57 54 55 56 56 57 57 59 58 58 57 56 56 54 57 52 46 49 34 30 29 34 51 42 40 40 43 43 45 41 39 41 36 35 31 32 31 34 31 31 32 29 28 26 26 24 24 23 23 25 24 20 23 21 20 20 19 21 23 24 19 18 19 19 17 18 19 26 31 26 31 32 31 31 31 31 32 32 32 32 32
59 59 59 58 58 57 57 56 55 55 56 57 58 58 59 59 58 57 57 56 53 53 50 44 48 40 29 33 36 33 33 38 42 41 41 41 41 39 36 36 33 30 31 30 33 33 31 28 29 27 25 25 24 25 22 23 21 21 22 19 23 19 19 19 21 23 25 21 20 20 17 16 18 18 28 31 29 31 31 31 31 31 31 32 32 32 32 32
59 59 59 58 58 57 57 56 55 55 56 57 58 58 57 57 57 56 54 53 51 49 45 49 46 33 27 35 31 31 41 40 42 42 40 38 38 34 33 31 30 28 28 29 28 30 30 28 29 27 24 23 21 23 23 21 22 21 20 20 19 20 20 19 20 22 22 23 22 22 20 20 21 22 29 31 32 31 31 31 31 31 31 31 31 31 31 31
59 59 58 58 57 58 57 56 55 55 57 58 58 57 57 55 49 49 49 46 38 35 30 34 31 26 25 31 34 41 43 42 41 40 39 38 37 33 33 32 31 29 27 27 27 26 28 28 29 23 23 22 21 21 23 24 24 21 22 22 23 21 22 21 21 22 23 22 21 22 21 22 23 23 29 31 31 31 31 31 31 31 31 31 31 31 30 30
59 59 58 58 57 57 56 55 55 56 57 58 56 53 46 44 40 41 43 46 41 34 32 33 36 36 35 34 35 41 41 39 38 38 40 40 33 31 30 29 32 28 25 27 28 27 29 24 23 23 23 23 22 21 22 23 23 23 24 23 22 22 22 22 22 23 24 22 21 22 22 22 23 25 30 31 31 31 30 30 30 30 31 30 30 30 30 29
58 58 58 58 57 57 56 55 55 56 58 58 56 49 41 42 34 31 38 43 45 43 40 38 38 35 31 36 38 38 35 35 38 38 39 39 33 30 29 28 28 27 28 31 28 26 26 24 24 24 23 23 22 22 21 20 21 20 21 21 20 22 20 21 21 24 26 23 23 22 22 23 23 28 30 31 31 30 31 30 30 30 30 30 29 29 28 29
58 58 58 57 57 56 55 56 56 57 58 57 54 48 43 43 40 41 41 37 42 44 44 42 40 39 39 36 38 38 38 35 36 37 38 38 32 28 29 27 27 26 29 28 28 26 24 24 24 24 25 24 23 22 21 20 20 21 20 21 21 21 23 23 24 26 27 23 22 23 22 23 23 29 30 30 30 30 31 31 31 30 29 29 28 28 27 27
58 58 58 57 57 56 56 56 57 58 57 54 52 50 42 44 45 45 44 40 41 44 43 43 41 41 40 43 38 37 34 34 34 37 36 38 32 31 29 27 27 28 28 27 28 26 26 27 26 26 25 24 24 23 22 23 23 21 22 21 21 24 23 23 25 27 26 23 23 23 22 23 26 28 29 29 30 30 30 30 30 30 28 27 27 27 26 26
57 58 58 57 57 56 56 56 57 57 55 54 52 47 45 46 44 42 42 41 41 42 43 43 42 42 41 40 42 36 35 35 36 36 39 34 31 34 29 29 27 28 27 26 28 28 28 28 27 26 26 24 24 24 23 23 22 25 24 23 23 24 24 23 23 25 26 26 24 22 22 22 24 26 27 29 30 29 29 28 28 29 29 29 28 27 27 25
57 57 57 57 57 57 57 58 55 54 54 53 51 48 46 45 44 43 41 39 36 38 43 42 44 43 43 41 41 37 37 37 37 38 38 33 30 30 29 30 28 27 28 27 27 28 28 29 29 26 26 25 26 24 25 26 23 25 26 24 24 24 23 24 26 24 24 24 25 22 20 19 22 24 27 28 28 28 29 28 28 27 27 27 26 26 26 27
57 57 57 57 58 57 58 53 52 54 53 51 49 47 46 45 44 43 38 32 35 36 39 38 44 40 42 38 40 39 38 36 36 37 38 35 37 32 30 28 30 29 27 27 26 28 27 29 30 28 27 26 26 25 26 26 24 23 25 27 25 24 24 25 24 25 20 20 23 23 19 18 23 23 26 27 27 28 28 28 28 27 27 27 26 26 26 25
57 56 57 57 57 58 53 49 52 53 49 49 48 48 46 46 45 44 38 32 32 36 38 40 40 39 38 35 39 39 34 36 34 35 33 37 33 34 31 29 29 29 29 28 30 29 29 28 27 28 27 26 25 24 27 26 25 24 27 27 27 26 25 25 25 25 24 25 26 24 23 20 21 23 26 27 27 27 27 27 27 27 26 26 26 26 25 25
57 57 56 56 57 57 55 54 53 51 48 50 48 48 47 47 45 44 37 27 27 35 34 36 37 39 35 30 38 37 36 35 33 35 33 34 33 31 32 30 29 29 28 31 28 31 29 28 27 27 27 26 26 27 28 28 26 26 28 28 27 27 26 26 25 24 23 22 23 23 24 20 19 22 26 27 25 25 26 27 27 27 27 26 25 26 25 26
57 57 56 57 58 58 57 56 55 53 52 48 47 48 48 48 47 43 36 30 33 30 36 32 38 32 30 33 31 30 29 27 33 33 34 33 34 31 31 30 30 28 27 31 31 29 27 29 29 29 28 26 27 28 28 29 26 27 28 28 27 26 26 25 23 23 21 20 18 21 24 19 22 24 23 24 24 25 26 27 27 26 26 25 25 25 25 25
58 57 57 57 57 56 56 56 54 55 49 49 49 49 50 48 46 38 33 28 33 30 33 33 30 30 32 33 33 27 28 26 30 30 31 31 30 30 28 32 26 27 27 27 27 30 28 33 32 29 28 28 29 28 29 29 28 29 27 27 26 25 24 23 23 21 19 15 21 23 24 23 20 24 24 24 25 25 27 26 27 27 26 26 26 24 25 24
58 58 57 57 55 55 55 52 55 51 50 50 51 51 51 48 40 35 31 34 37 31 30 31 28 32 33 33 33 28 27 27 30 30 29 30 29 28 27 29 29 28 26 27 26 27 28 27 26 27 32 29 28 26 27 28 27 27 25 25 25 23 20 18 13 19 16 15 17 20 22 23 18 21 23 24 26 26 27 26 26 26 25 24 25 25 25 25
57 58 58 57 57 57 54 52 55 52 51 52 53 51 49 39 40 34 32 37 33 33 30 29 28 30 31 28 27 25 27 27 28 30 29 29 28 27 27 29 28 23 25 26 27 26 26 27 28 27 33 28 27 27 26 27 27 27 25 24 19 17 17 14 11 15 15 18 19 23 23 21 22 23 23 25 26 26 26 27 26 25 24 24 24 25 25 25
57 57 57 58 56 56 56 53 55 53 52 53 53 51 44 37 31 38 36 34 32 31 29 31 28 28 29 29 26 25 28 27 27 28 30 29 29 29 28 27 28 28 24 25 27 24 26 27 28 27 27 29 29 25 24 24 24 26 25 23 18 15 10 8 11 7 11 15 20 24 23 21 23 25 25 25 26 26 26 27 27 25 24 23 24 25 25 25
57 57 56 57 57 57 55 54 54 53 53 53 51 46 41 32 33 41 38 35 34 36 33 29 28 29 29 28 29 27 26 26 29 28 29 28 28 28 29 28 28 27 26 25 25 25 19 24 28 27 26 29 28 27 27 26 24 25 26 25 24 17 7 14 7 14 15 15 20 21 15 14 17 23 25 26 26 26 26 27 27 25 24 24 24 25 24 24
57 57 57 56 57 57 54 54 54 55 54 52 47 43 34 33 33 34 35 35 35 35 34 35 28 28 27 27 32 27 29 25 28 28 28 28 27 27 27 28 29 29 28 25 26 22 24 25 27 29 28 28 28 28 28 26 25 24 25 26 21 22 23 17 12 9 8 14 13 17 18 21 23 25 27 24 24 25 25 26 26 24 24 25 24 24 23 23
56 54 56 53 54 55 54 54 54 55 54 49 43 38 35 37 34 35 36 39 37 33 33 33 32 28 28 26 31 27 29 28 29 28 27 28 28 27 28 28 29 28 28 26 26 23 24 24 28 28 28 27 27 28 26 28 23 25 24 19 25 26 23 15 15 11 11 10 18 11 21 24 23 24 24 24 24 23 24 24 24 24 24 24 23 23 23 23
53 52 50 51 53 54 54 54 55 55 53 48 42 35 39 36 40 37 40 39 39 36 30 28 31 26 29 26 28 30 28 32 29 27 25 29 26 28 28 30 31 29 30 30 28 28 26 25 28 27 27 29 29 28 27 28 28 25 20 24 26 27 27 23 17 13 8 13 15 16 18 20 19 18 23 23 23 23 23 23 23 23 24 23 22 23 23 23
51 50 50 50 52 53 54 54 54 53 50 45 39 39 40 39 41 41 40 40 39 39 35 33 33 30 31 28 30 31 34 31 32 27 27 29 29 32 29 30 32 29 29 32 28 29 29 25 28 28 28 29 28 28 28 28 28 26 25 27 24 19 19 22 18 15 13 11 13 13 18 19 20 19 22 23 23 23 23 23 23 23 23 22 22 22 23 23
49 49 47 49 52 53 53 54 53 50 46 41 40 39 41 41 41 40 41 42 41 40 37 37 36 36 36 31 35 35 35 31 30 28 30 31 29 32 30 34 32 34 32 30 29 31 31 28 28 29 29 30 28 28 25 25 27 28 27 25 27 24 22 20 22 17 17 9 6 13 11 15 20 21 22 22 24 24 23 23 22 22 22 22 22 22 23 23
48 46 45 50 52 53 53 54 50 48 44 38 40 40 41 39 41 42 42 43 41 40 38 38 38 36 36 35 35 35 35 35 31 32 33 33 34 35 31 35 34 34 33 33 33 35 29 30 26 27 29 29 26 27 27 26 26 25 25 24 26 22 26 25 20 19 16 6 9 12 15 15 20 23 23 22 24 24 23 23 23 22 22 22 22 22 23 23
46 45 43 50 52 53 53 50 45 42 41 39 40 40 39 39 41 42 43 44 43 44 42 39 39 37 37 36 36 37 34 35 34 34 34 33 32 30 34 35 35 33 35 33 31 30 29 28 27 26 26 26 28 30 30 29 28 26 25 24 25 24 21 20 21 23 14 15 15 8 16 15 23 26 25 24 25 25 24 24 23 23 23 23 23 23 23 23
46 40 43 50 52 52 49 42 42 42 40 40 39 40 39 43 40 42 42 43 42 41 43 41 40 39 37 38 38 36 35 34 34 33 33 33 34 35 36 37 36 34 32 31 32 35 34 31 29 27 28 28 29 30 31 30 30 29 27 26 27 26 25 20 20 20 17 20 18 15 14 20 25 25 26 25 25 25 25 24 24 24 23 23 23 23 24 23
42 41 47 49 52 51 47 42 43 42 41 40 42 41 43 41 40 41 41 42 41 42 40 40 40 39 39 39 38 37 38 35 36 35 35 34 34 36 36 36 37 36 35 32 33 31 34 29 27 29 28 27 28 29 30 29 29 28 28 27 26 25 26 24 24 23 21 15 15 13 18 22 26 26 26 25 26 25 26 25 24 24 23 23 23 24 23 23
41 43 45 49 51 50 44 37 37 40 40 41 41 41 42 42 41 40 40 41 41 40 40 39 39 41 38 40 38 37 39 33 36 36 35 34 35 35 34 35 37 33 33 33 33 35 29 30 30 26 23 24 26 28 28 28 28 27 26 26 26 26 24 22 21 20 20 21 22 21 19 21 26 25 25 24 24 25 26 25 25 24 25 24 24 24 24 24
40 41 43 46 49 48 41 41 39 38 39 39 40 39 40 40 41 42 41 41 41 40 39 38 40 40 39 39 39 39 39 37 34 34 36 33 35 33 33 33 34 34 34 36 37 36 31 29 30 25 24 21 19 18 20 24 27 27 25 27 28 27 26 25 23 22 23 25 24 22 22 26 26 24 25 25 25 24 25 25 25 24 24 24 24 24 24 24
35 33 39 41 45 44 43 43 41 38 37 38 38 39 39 38 38 39 42 41 42 38 39 38 37 40 37 37 36 36 36 36 36 33 34 33 33 33 33 32 33 34 36 37 34 34 32 31 31 30 27 25 24 23 25 28 26 26 26 26 26 26 27 27 26 24 24 25 24 25 25 25 26 24 25 22 22 24 24 25 24 25 25 25 24 24 24 24
35 32 35 33 42 42 40 42 40 40 37 39 36 38 37 38 38 38 41 38 40 39 37 38 37 37 35 36 36 36 37 35 35 35 33 33 32 32 32 32 31 35 38 34 33 33 32 31 32 31 31 31 29 23 25 30 29 29 29 29 29 29 29 28 27 25 27 25 24 26 25 23 26 26 26 24 24 25 26 25 25 25 26 26 25 25 28 24
32 33 37 39 36 33 36 37 41 40 40 38 37 34 36 37 37 36 39 40 37 39 38 36 37 38 37 37 35 34 35 35 35 34 33 31 33 33 33 32 32 34 35 33 32 34 30 30 31 31 30 31 25 28 29 29 29 29 29 30 30 29 28 28 28 30 26 26 24 27 27 26 27 27 27 27 26 25 25 26 26 26 25 26 26 26 26 25
35 31 34 36 33 32 37 38 40 40 40 39 36 35 33 35 36 37 37 36 37 37 40 35 35 37 37 37 37 34 34 33 32 34 33 33 33 32 31 32 32 31 29 30 31 29 30 26 25 29 29 28 25 26 25 26 25 24 25 26 27 28 27 28 28 28 27 27 27 25 25 25 26 25 25 26 27 26 25 26 26 26 26 27 27 26 26 25
31 30 31 32 32 31 32 38 39 40 37 40 36 36 35 33 34 34 35 37 34 36 38 37 36 35 36 36 36 35 34 35 33 33 33 33 31 31 31 33 30 30 29 31 30 32 32 27 28 24 25 24 21 23 24 23 22 24 25 26 25 25 24 25 25 25 24 24 24 24 24 25 26 26 25 24 23 26 25 25 26 26 26 26 26 26 26 26
33 32 31 31 30 29 33 36 37 38 36 38 36 37 36 34 33 35 34 34 36 34 37 37 37 34 34 35 35 35 35 33 33 34 33 33 33 33 32 32 32 27 27 27 27 28 29 26 22 23 25 24 21 22 20 23 23 22 23 24 25 22 22 22 22 24 24 23 23 22 22 23 24 23 24 21 23 24 24 24 24 25 25 26 27 27 26 26
33 32 33 31 28 34 31 33 34 35 33 37 38 37 35 35 34 34 32 33 33 34 36 38 37 36 32 33 34 35 34 34 34 34 33 33 31 30 32 32 32 31 27 29 25 25 26 23 21 19 22 24 20 19 18 18 20 21 23 23 23 23 24 20 18 22 24 24 21 21 23 26 21 23 18 19 20 22 23 23 23 24 23 24 25 27 27 27